Home > Time Zones > World Clock > Weather > Togo > Lome > Past weeks

Flag for Togo Weather past 2 weeks in Lome, Togo

Now
81 °F

Passing clouds.


Feels Like: 87 °F
Forecast: N/A
Wind: 16 mph from Southwest

Location: Lome Airport

Current Time: Sep 23, 2014 at 4:37:42 PM

Latest Report: Sep 23, 2014 at 4:00 PM


Visibility: N/A

Pressure: 29.86 "Hg

Humidity: 89%

Dew point: 77 °F

Location of LomeLocation

Historic Weather in Lome — Graph

°F

Lome temperature yesterday

Maximum temperature yesterday: 82 °F (at 11:00 AM)
Minimum temperature yesterday: 77 °F (at 12:00 AM)
Average temperature yesterday: 79 °F

Past Weeks' High & Low Weather Summary

 TemperatureHumidityPressure
High86 °F (Sep 15, 12:00 PM)100% (Sep 12, 3:00 AM)30.01 "Hg (Sep 12, 3:00 AM)
Low70 °F (Sep 12, 3:00 AM)70% (Sep 10, 1:00 PM)29.83 "Hg (Sep 12, 3:00 PM)
Average79 °F87%29.92 "Hg
* Reported Sep 8 3:00 PM — Sep 23 3:00 PM, Lome, Weather by CustomWeather, © 2014

Note: Actual official high and low records may vary slightly from our data, if they occured in-between our weather recording intervals... More about our weather records

Advertising

Lome weather history for previous 24 hours

 ConditionsComfort  
Time TempWeatherWind HumidityBarometerVisibility
3:00 PM
Sep 23
84 °FPassing clouds.16 mph74%29.86 "HgN/A
2:00 PM82 °FPassing clouds.16 mph79%29.86 "HgN/A
1:00 PM84 °FPassing clouds.16 mph74%29.89 "HgN/A
12:00 PM86 °FPassing clouds.14 mph70%29.92 "HgN/A
11:00 AM82 °FScattered clouds.12 mph79%29.95 "HgN/A
10:00 AM82 °FScattered clouds.10 mph79%29.98 "HgN/A
9:00 AM81 °FScattered clouds.9 mph84%29.98 "HgN/A
8:00 AM79 °FScattered clouds.7 mph89%29.95 "HgN/A
7:00 AM77 °FPassing clouds.3 mph94%29.95 "Hg5 mi
6:00 AM75 °FPassing clouds.2 mph100%29.92 "Hg4 mi
5:00 AM75 °FPassing clouds.3 mph100%29.92 "Hg5 mi
4:00 AM75 °FPassing clouds.2 mph100%29.89 "Hg5 mi
3:48 AM75 °FPassing clouds.3 mph100%29.92 "Hg5 mi
3:00 AM77 °FPassing clouds.3 mph94%29.89 "Hg5 mi
2:00 AM77 °FPassing clouds.1 mph94%29.89 "Hg5 mi
1:00 AM77 °FPassing clouds.2 mph94%29.89 "Hg5 mi
12:00 AM77 °FPassing clouds.3 mph94%29.92 "HgN/A
11:00 PM
Sep 22
77 °FPassing clouds.6 mph94%29.92 "HgN/A
10:00 PM77 °FPassing clouds.5 mph94%29.92 "HgN/A
9:00 PM77 °FPassing clouds.8 mph94%29.89 "HgN/A
8:00 PM77 °FPassing clouds.9 mph94%29.89 "HgN/A
7:00 PM77 °FPassing clouds.8 mph94%29.86 "HgN/A
6:00 PM79 °FPassing clouds.10 mph89%29.86 "HgN/A
5:00 PM81 °FPassing clouds.13 mph84%29.83 "HgN/A
4:00 PM81 °FPassing clouds.13 mph84%29.86 "HgN/A
Weather by CustomWeather, © 2014

See weather overviewHow to use our weather pages